Flag for Germany Weather past 2 weeks in Schleswig, Schleswig-Holstein, Germany

Now
60 °F

Clear.


Feels Like: 60 °F
Forecast: 56 / 71 °F
Wind: 3 mph from Northeast

Location: Schleswig

Current Time: Sep 19, 2014 at 2:14:11 AM

Latest Report: Sep 19, 2014 at 1:00 AM


Visibility: 5 mi

Pressure: 29.96 "Hg

Humidity: 93%

Dew point: 57 °F

Location of SchleswigLocation

Historic Weather in Schleswig — Graph

°F

Schleswig temperature yesterday

Maximum temperature yesterday: 69 °F (at 3:00 PM)
Minimum temperature yesterday: 59 °F (at 7:00 AM)
Average temperature yesterday: 63 °F

Past Weeks' High & Low Weather Summary

 TemperatureHumidityPressure
High75 °F (Sep 6, 2:00 PM)99% (Sep 4, 7:00 AM)30.32 "Hg (Sep 4, 7:00 AM)
Low51 °F (Sep 9, 4:00 AM)54% (Sep 17, 3:00 PM)29.88 "Hg (Sep 6, 4:00 PM)
Average62 °F84%30.08 "Hg
* Reported Sep 4 1:00 AM — Sep 19 1:00 AM, Schleswig, Weather by CustomWeather, © 2014

Note: Actual official high and low records may vary slightly from our data, if they occured in-between our weather recording intervals... More about our weather records

Advertising

Schleswig weather history for previous 24 hours

 ConditionsComfort  
Time TempWeatherWind HumidityBarometerVisibility
1:00 AM
Sep 19
60 °FClear.3 mph93%29.96 "Hg5 mi
12:00 AM60 °FPassing clouds.3 mph90%29.97 "Hg5 mi
11:00 PM
Sep 18
60 °FClear.3 mph91%29.97 "Hg5 mi
10:00 PM61 °FFog.5 mph90%29.97 "Hg4 mi
9:00 PM62 °FClear.5 mph87%29.97 "Hg6 mi
8:00 PM63 °FClear.5 mph83%29.97 "Hg6 mi
7:00 PM65 °FSunny.6 mph77%29.96 "Hg6 mi
6:00 PM67 °FSunny.5 mph70%29.96 "Hg9 mi
5:00 PM68 °FSunny.6 mph70%29.95 "Hg7 mi
4:00 PM68 °FSunny.7 mph69%29.95 "Hg9 mi
3:00 PM69 °FSunny.5 mph68%29.96 "Hg9 mi
2:00 PM69 °FSunny.6 mph68%29.96 "Hg9 mi
1:00 PM69 °FPassing clouds.6 mph67%29.97 "Hg12 mi
12:00 PM67 °FPassing clouds.6 mph72%29.98 "Hg12 mi
11:00 AM66 °FSunny.5 mph72%29.98 "Hg11 mi
10:00 AM64 °FSunny.5 mph78%29.99 "Hg9 mi
9:00 AM62 °FPassing clouds.3 mph83%29.98 "Hg7 mi
8:00 AM59 °FPassing clouds.5 mph93%29.98 "Hg6 mi
7:00 AM59 °FPartly sunny.3 mph93%29.98 "Hg5 mi
6:00 AM60 °FOvercast.3 mph94%29.98 "Hg5 mi
5:00 AM59 °FOvercast.3 mph95%29.99 "Hg5 mi
4:00 AM60 °FOvercast.3 mph96%30.00 "Hg6 mi
3:00 AM60 °FOvercast.3 mph95%30.01 "Hg6 mi
2:00 AM60 °FOvercast.3 mph94%30.01 "Hg5 mi
Weather by CustomWeather, © 2014

See weather overviewHow to use our weather pages